Regional Weather Roundup
Issued by NWS

Home | Current Version | Previous Version | Graphics & Text | Print | Product List | Glossary On
Versions: 1 2 3 4 5 6 7 8 9 10 11 12 13 14 15 16 17 18 19 20 21 22 23 24 25 26 27 28 29 30 31 32 33 34 35 36 37 38 39 40 41 42 43 44 45 46 47 48 49 50
000
ASUS43 KBIS 120520
RWRND

NORTH DAKOTA REGIONAL WEATHER ROUNDUP
NATIONAL WEATHER SERVICE BISMARCK ND
1200 AM CDT SAT JUL 12 2014

NOTE: "FAIR" INDICATES FEW OR NO CLOUDS BELOW 12,000 FEET WITH NO
SIGNIFICANT WEATHER AND/OR OBSTRUCTIONS TO VISIBILITY.


NDZ001>003-009>011-017-120600-
NORTHWEST NORTH DAKOTA

CITY           SKY/WX    TMP DP  RH WIND       PRES   REMARKS
WILLISTON      MOCLDY    60  52  74 N3        30.13R
MINOT          CLEAR     61  55  81 SW8       30.10R
MINOT AFB      CLEAR     59  58  99 W8        30.10R
$$

NDZ018>021-031>035-040>046-120600-
SOUTHWEST NORTH DAKOTA

CITY           SKY/WX    TMP DP  RH WIND       PRES   REMARKS
BISMARCK       CLOUDY    68  58  70 CALM      30.11R
DICKINSON      CLOUDY    64  57  78 E6        30.12S
GARRISON         N/A     61  58  90 N6        30.11S
HETTINGER ARPT CLOUDY    64  54  69 E12       30.14R
$$

NDZ004>008-012>016-024-026-027-054-120600-
NORTHEAST NORTH DAKOTA

CITY           SKY/WX    TMP DP  RH WIND       PRES   REMARKS
GRAND FORKS    PTCLDY    61  56  83 W7        30.02R
GRND FRKS AFB  PTCLDY    63  57  82 W5        30.04R
DEVILS LAKE    CLEAR     61  54  77 CALM      30.06R
$$

NDZ022-023-025-028>030-036>039-047>053-120600-
SOUTHEAST NORTH DAKOTA

CITY           SKY/WX    TMP DP  RH WIND       PRES   REMARKS
FARGO          PTCLDY    68  57  68 N8        30.02R
JAMESTOWN      CLOUDY    66  57  72 N7        30.07R
$$



USA.gov is the U.S. government's official web portal to all federal, state and local government web resources and services.